Regional Weather Roundup
Issued by NWS Jackson, KY

Home | Current Version | Previous Version | Graphics & Text | Print | Product List | Glossary On
Versions: 1 2 3 4 5 6 7 8 9 10 11 12 13 14 15 16 17 18 19 20 21 22 23 24 25 26 27
000
ASUS43 KJKL 232310
RWRJKL

EAST KENTUCKY HOURLY WEATHER ROUNDUP
NATIONAL WEATHER SERVICE JACKSON KY
700 PM EDT SAT SEP 23 2017

NOTE: "FAIR" INDICATES FEW OR NO CLOUDS BELOW 12,000 FEET WITH
NO SIGNIFICANT WEATHER AND/OR OBSTRUCTIONS TO VISIBILITY.

* THESE REPORTS ARE NOT UNDER NWS QUALITY CONTROL AND MAY NOT
  REPORT WEATHER SUCH AS PRECIPITATION AND FOG.

KYZ079-080-083-085-087-088-110-112-115-119-120-240000
...EASTERN KENTUCKY...

CITY           SKY/WX    TMP DP  RH WIND       PRES   REMARKS
JACKSON        CLEAR     78  64  61 CALM      30.09R
LONDON         CLEAR     82  62  50 NE6       30.07R
SOMERSET*      CLEAR     81  61  50 N6        30.06S
MONTICELLO*    CLEAR     83  68  60 N13       30.06S
WILLIAMSBURG*  CLEAR     81  64  57 NE5       30.06R
MIDDLESBORO*   CLEAR     79  67  66 CALM      30.06R
HARLAN APT*    CLEAR     79  63  57 CALM      30.07S
PIKE CO APT*     N/A     78  64  61 N5        30.09S
BIG SANDY APT* CLEAR     80  64  58 CALM      30.08F
MOREHEAD APT*  CLEAR     82  64  54 CALM      30.10S
$$

KYZ035-036-041-042-044-050-067-078-099-240000
...CENTRAL KENTUCKY...

CITY           SKY/WX    TMP DP  RH WIND       PRES   REMARKS
MT STERLING*   CLEAR     82  61  47 E3        30.09S
FLEMING/MASON* CLEAR     82  65  55 CALM      30.09S
DANVILLE*      CLEAR     81  63  54 E3        30.08S
LEXINGTON      CLEAR     82  61  48 NE7       30.07S
FRANKFORT      CLEAR     86  60  41 NE3       30.06S
LOUISVILLE     PTCLDY    87  61  41 E7        30.04S
LEBANON*         N/A     82  64  54 CALM      30.06S
GLASGOW*       CLEAR     83  66  56 NE3       30.04S
BOWLING GREEN  CLEAR     82  69  64 NE6       30.03R
$$

KYZ091>093-OHZ055-061-077-WVZ005-015-034-035-042-240000
...SOUTHERN OHIO/WEST VIRGINIA...

CITY           SKY/WX    TMP DP  RH WIND       PRES   REMARKS
COVINGTON      PTCLDY    86  64  47 E8        30.07S
COLUMBUS       PTCLDY    86  61  42 E7        30.08S
DAYTON         PTCLDY    83  59  44 E7        30.09S
WILMINGTON     CLEAR     83  62  49 E6        30.09R
HUNTINGTON     CLEAR     84  61  45 N5        30.05S
CHARLESTON     CLEAR     83  55  38 NE6       30.07R
PINEVILLE*     CLEAR     74  61  62 MISG      30.15R
BECKLEY        CLEAR     78  53  41 NE7       30.15R
BLUEFIELD      CLEAR     76  41  28 CALM      30.17S
LOGAN CO APT*    N/A     81  59  47 CALM      30.09F
$$

VAZ002-007-008-TNZ017-027-036-066-071-240000
...SOUTHWEST VIRGINIA/EAST TENNESSEE...

CITY           SKY/WX    TMP DP  RH WIND       PRES   REMARKS
WISE*          CLEAR     77  59  53 N7        30.16S
JONESVILLE*      N/A     81  68  65 CALM      30.08R
ABINGDON*      CLEAR     82  54  37 SE9       30.11R
BRISTOL        PTCLDY    83  62  49 CALM      30.05R
MORRISTOWN*    MOCLDY    84  63  48 VRB6      30.03R
SEVIERVILLE*   CLEAR     86  57  37 CALM      30.01S
KNOXVILLE      PTCLDY    85  63  47 N6        30.02R
LAFOLLETTE*    PTCLDY    82  66  57 CALM      30.07S
OAK RIDGE      CLEAR     84  66  54 VRB3      30.04R
CROSSVILLE     CLEAR     78  65  63 N3        30.09S
NASHVILLE      PTCLDY    85  67  54 NE7       30.01S
$$

...KEY TO REMARKS...
VSB - VISIBILITY IN MILES
WCI - WIND CHILL INDEX
HX  - HEAT INDEX

$$




USA.gov is the U.S. government's official web portal to all federal, state and local government web resources and services.